Time,TemperatureF,DewpointF,PressureIn,WindDirection,WindDirectionDegrees,WindSpeedMPH,WindSpeedGustMPH,Humidity,HourlyPrecipIn,Conditions,Clouds,dailyrainin,SoftwareType,DateUTC
2013-01-02 00:00:00,50.4,50.4,30.01,SSW,211,0.0,0.0,100,0.08,,-RA,1.56,VWS V14.00,2013-01-02 05:00:00,
2013-01-02 00:01:00,50.4,50.4,30.02,SSW,211,0.0,0.0,100,0.09,,-RA,0.00,VWS V14.00,2013-01-02 05:01:00,
2013-01-02 00:06:00,50.4,50.4,30.02,SSW,211,0.0,0.0,100,0.08,,-RA,0.00,VWS V14.00,2013-01-02 05:06:00,
2013-01-02 00:10:00,50.4,50.4,30.02,SSW,211,0.0,0.0,100,0.09,,CLR,0.01,VWS V14.00,2013-01-02 05:10:00,
2013-01-02 00:11:00,50.4,50.4,30.02,SSW,211,0.0,0.0,100,0.06,,-RA,0.01,VWS V14.00,2013-01-02 05:11:00,
2013-01-02 00:16:00,50.4,50.4,30.00,SSW,211,0.0,0.0,100,0.06,,-RA,0.01,VWS V14.00,2013-01-02 05:16:00,
2013-01-02 00:20:00,50.2,50.2,30.00,SSW,211,0.0,0.0,100,0.06,,CLR,0.01,VWS V14.00,2013-01-02 05:20:00,
2013-01-02 00:21:00,50.2,50.2,30.00,SSW,211,0.0,0.0,100,0.06,,-RA,0.01,VWS V14.00,2013-01-02 05:21:00,
2013-01-02 00:26:00,50.2,50.2,30.00,SSW,211,0.0,0.0,100,0.07,,-RA,0.02,VWS V14.00,2013-01-02 05:26:00,
2013-01-02 00:30:00,50.2,50.2,30.00,SSW,211,0.0,0.0,100,0.07,,CLR,0.02,VWS V14.00,2013-01-02 05:30:00,
2013-01-02 00:31:00,50.2,50.2,30.00,SSW,211,0.0,0.0,100,0.06,,-RA,0.02,VWS V14.00,2013-01-02 05:31:00,
2013-01-02 00:36:00,50.2,50.2,30.00,SSW,211,0.0,0.0,100,0.06,,-RA,0.02,VWS V14.00,2013-01-02 05:36:00,
2013-01-02 00:40:00,50.2,50.2,30.00,SSW,211,0.0,0.0,100,0.07,,CLR,0.03,VWS V14.00,2013-01-02 05:40:00,
2013-01-02 00:41:00,50.2,50.2,30.00,SSW,211,0.0,0.0,100,0.07,,-RA,0.03,VWS V14.00,2013-01-02 05:41:00,
2013-01-02 00:46:00,50.1,50.1,29.99,SSW,211,0.0,0.0,100,0.07,,-RA,0.03,VWS V14.00,2013-01-02 05:46:00,
2013-01-02 00:50:00,50.1,50.1,29.99,SSW,211,0.0,0.0,100,0.07,,CLR,0.03,VWS V14.00,2013-01-02 05:50:00,
2013-01-02 00:51:00,50.1,50.1,29.99,SSW,211,0.0,0.0,100,0.05,,-RA,0.03,VWS V14.00,2013-01-02 05:51:00,
2013-01-02 00:56:00,50.1,50.1,29.99,WSW,247,0.0,0.0,100,0.06,,-RA,0.04,VWS V14.00,2013-01-02 05:56:00,
2013-01-02 01:00:00,49.9,49.9,30.00,WSW,247,0.0,0.0,100,0.06,,CLR,0.04,VWS V14.00,2013-01-02 06:00:00,
2013-01-02 01:01:00,49.9,49.9,30.00,WSW,247,0.0,0.0,100,0.06,,-RA,0.04,VWS V14.00,2013-01-02 06:01:00,
2013-01-02 01:06:00,49.9,49.9,30.00,WSW,247,0.0,0.0,100,0.04,,-RA,0.04,VWS V14.00,2013-01-02 06:06:00,
2013-01-02 01:10:00,49.8,49.8,30.00,WSW,247,0.0,0.0,100,0.04,,CLR,0.04,VWS V14.00,2013-01-02 06:10:00,
2013-01-02 01:11:00,49.8,49.8,30.00,WSW,247,0.0,0.0,100,0.04,,-RA,0.04,VWS V14.00,2013-01-02 06:11:00,
2013-01-02 01:16:00,49.8,49.8,29.99,WSW,247,0.0,0.0,100,0.04,,-RA,0.05,VWS V14.00,2013-01-02 06:16:00,
2013-01-02 01:20:00,49.8,49.8,29.99,WSW,247,0.0,0.0,100,0.04,,CLR,0.05,VWS V14.00,2013-01-02 06:20:00,
2013-01-02 01:21:00,49.8,49.8,29.99,WSW,247,0.0,0.0,100,0.04,,-RA,0.05,VWS V14.00,2013-01-02 06:21:00,
2013-01-02 01:26:00,49.6,49.6,29.99,WSW,247,0.0,0.0,100,0.04,,-RA,0.05,VWS V14.00,2013-01-02 06:26:00,
2013-01-02 01:30:00,49.6,49.6,29.99,WSW,247,0.0,0.0,100,0.04,,CLR,0.05,VWS V14.00,2013-01-02 06:30:00,
2013-01-02 01:31:00,49.6,49.6,29.99,WSW,247,0.0,0.0,100,0.04,,-RA,0.05,VWS V14.00,2013-01-02 06:31:00,
2013-01-02 01:36:00,49.6,49.6,29.99,WSW,247,0.0,0.0,100,0.03,,-RA,0.05,VWS V14.00,2013-01-02 06:36:00,
2013-01-02 01:40:00,49.5,49.5,29.99,WSW,247,0.0,0.0,100,0.03,,-RA,0.05,VWS V14.00,2013-01-02 06:40:00,
2013-01-02 01:45:00,49.5,49.5,29.98,WSW,247,0.0,0.0,100,0.02,,-RA,0.05,VWS V14.00,2013-01-02 06:45:00,
2013-01-02 01:50:00,49.5,49.5,29.98,WSW,247,0.0,0.0,100,0.02,,-RA,0.05,VWS V14.00,2013-01-02 06:50:00,
2013-01-02 01:55:00,49.4,49.4,29.98,WSW,247,0.0,0.0,100,0.02,,-RA,0.05,VWS V14.00,2013-01-02 06:55:00,
2013-01-02 02:00:00,49.4,49.4,30.01,WNW,303,0.0,0.0,100,0.02,,-RA,0.05,VWS V14.00,2013-01-02 07:00:00,
2013-01-02 02:05:00,49.4,49.4,30.01,WNW,303,0.0,0.0,100,0.01,,-RA,0.05,VWS V14.00,2013-01-02 07:05:00,
2013-01-02 02:10:00,49.2,49.2,30.01,NW,307,1.0,3.0,100,0.01,,-RA,0.05,VWS V14.00,2013-01-02 07:10:00,
2013-01-02 02:15:00,49.1,49.1,30.01,North,360,0.0,3.0,100,0.01,,-RA,0.05,VWS V14.00,2013-01-02 07:15:00,
2013-01-02 02:20:00,48.9,48.9,30.01,WSW,248,0.0,3.0,100,0.01,,-RA,0.05,VWS V14.00,2013-01-02 07:20:00,
2013-01-02 02:25:00,48.8,48.8,30.01,North,9,0.0,2.0,100,0.00,,-RA,0.05,VWS V14.00,2013-01-02 07:25:00,
2013-01-02 02:30:00,48.8,48.8,30.02,North,9,0.0,2.0,100,0.00,,-RA,0.05,VWS V14.00,2013-01-02 07:30:00,
2013-01-02 02:35:00,48.6,48.6,30.02,SE,146,0.0,2.0,100,0.00,,-RA,0.05,VWS V14.00,2013-01-02 07:35:00,
2013-01-02 02:40:00,48.5,48.5,30.02,NNW,338,0.0,3.0,100,0.00,,OVC035,0.05,VWS V14.00,2013-01-02 07:40:00,
2013-01-02 02:45:00,48.3,48.3,30.02,WNW,285,0.0,4.0,100,0.00,,OVC035,0.05,VWS V14.00,2013-01-02 07:45:00,
2013-01-02 02:50:00,48.2,48.2,30.02,WNW,284,0.0,4.0,100,0.00,,OVC035,0.05,VWS V14.00,2013-01-02 07:50:00,
2013-01-02 02:55:00,48.0,48.0,30.02,SW,221,0.0,4.0,100,0.00,,OVC035,0.05,VWS V14.00,2013-01-02 07:55:00,
2013-01-02 03:00:00,47.9,47.9,30.03,North,360,4.0,6.0,100,0.00,,OVC035,0.05,VWS V14.00,2013-01-02 08:00:00,
2013-01-02 03:05:00,47.7,47.7,30.03,NW,325,0.0,7.0,100,0.00,,OVC035,0.05,VWS V14.00,2013-01-02 08:05:00,
2013-01-02 03:10:00,47.4,47.4,30.03,North,5,0.0,7.0,100,0.00,,OVC035,0.05,VWS V14.00,2013-01-02 08:10:00,
2013-01-02 03:15:00,47.3,47.3,30.03,West,279,1.0,8.0,100,0.00,,OVC035,0.05,VWS V14.00,2013-01-02 08:15:00,
2013-01-02 03:20:00,47.1,47.1,30.03,North,360,0.0,8.0,100,0.00,,OVC035,0.05,VWS V14.00,2013-01-02 08:20:00,
2013-01-02 03:25:00,47.0,47.0,30.03,NNE,18,0.0,3.0,100,0.00,,OVC035,0.05,VWS V14.00,2013-01-02 08:25:00,
2013-01-02 03:30:00,47.0,47.0,30.04,ENE,76,1.0,3.0,100,0.00,,OVC035,0.05,VWS V14.00,2013-01-02 08:30:00,
2013-01-02 03:35:00,47.0,47.0,30.04,NNW,343,1.0,2.0,100,0.00,,OVC035,0.05,VWS V14.00,2013-01-02 08:35:00,
2013-01-02 03:40:00,46.8,46.8,30.04,SSE,160,0.0,2.0,100,0.00,,OVC008,0.05,VWS V14.00,2013-01-02 08:40:00,
2013-01-02 03:45:00,46.7,46.7,30.05,SW,226,0.0,1.0,100,0.00,,OVC008,0.05,VWS V14.00,2013-01-02 08:45:00,
2013-01-02 03:50:00,46.5,46.5,30.05,SW,219,0.0,6.0,100,0.00,,OVC008,0.05,VWS V14.00,2013-01-02 08:50:00,
2013-01-02 03:55:00,46.4,46.4,30.05,NNW,335,0.0,2.0,100,0.00,,OVC008,0.05,VWS V14.00,2013-01-02 08:55:00,
2013-01-02 04:00:00,46.2,46.2,30.04,NNE,24,0.0,3.0,100,0.00,,OVC008,0.05,VWS V14.00,2013-01-02 09:00:00,
2013-01-02 04:05:00,46.0,46.0,30.04,NNW,346,0.0,6.0,100,0.00,,OVC008,0.05,VWS V14.00,2013-01-02 09:05:00,
2013-01-02 04:10:00,45.8,45.8,30.04,NNW,346,0.0,6.0,100,0.00,,OVC008,0.05,VWS V14.00,2013-01-02 09:10:00,
2013-01-02 04:15:00,45.7,45.7,30.04,NNW,346,1.0,1.0,100,0.00,,OVC008,0.05,VWS V14.00,2013-01-02 09:15:00,
2013-01-02 04:20:00,45.7,45.7,30.04,WSW,257,3.0,4.0,100,0.00,,OVC008,0.05,VWS V14.00,2013-01-02 09:20:00,
2013-01-02 04:25:00,45.5,45.5,30.04,NW,310,0.0,2.0,100,0.00,,OVC008,0.05,VWS V14.00,2013-01-02 09:25:00,
2013-01-02 04:30:00,45.4,45.4,30.04,SW,222,0.0,3.0,100,0.00,,OVC008,0.05,VWS V14.00,2013-01-02 09:30:00,
2013-01-02 04:35:00,45.4,45.4,30.04,ESE,105,0.0,1.0,100,0.00,,OVC008,0.05,VWS V14.00,2013-01-02 09:35:00,
2013-01-02 04:40:00,45.2,45.2,30.04,West,269,3.0,4.0,100,0.00,,OVC014,0.05,VWS V14.00,2013-01-02 09:40:00,
2013-01-02 04:45:00,45.2,45.2,30.04,NW,309,0.0,1.0,100,0.00,,OVC014,0.05,VWS V14.00,2013-01-02 09:45:00,
2013-01-02 04:50:00,45.1,45.1,30.04,NW,309,0.0,1.0,100,0.00,,OVC014,0.05,VWS V14.00,2013-01-02 09:50:00,
2013-01-02 04:55:00,45.1,45.1,30.04,NW,309,0.0,2.0,100,0.00,,OVC014,0.05,VWS V14.00,2013-01-02 09:55:00,
2013-01-02 05:00:00,45.1,45.1,30.04,NW,309,0.0,2.0,100,0.00,,OVC014,0.05,VWS V14.00,2013-01-02 10:00:00,
2013-01-02 05:05:00,45.1,45.1,30.04,NW,309,0.0,0.0,100,0.00,,OVC014,0.05,VWS V14.00,2013-01-02 10:05:00,
2013-01-02 05:10:00,44.9,44.9,30.04,NW,309,0.0,0.0,100,0.00,,OVC014,0.05,VWS V14.00,2013-01-02 10:10:00,
2013-01-02 05:15:00,44.9,44.9,30.03,NW,309,0.0,0.0,100,0.00,,OVC014,0.05,VWS V14.00,2013-01-02 10:15:00,
2013-01-02 05:20:00,44.8,44.8,30.03,NW,309,0.0,0.0,100,0.00,,OVC014,0.05,VWS V14.00,2013-01-02 10:20:00,
2013-01-02 05:25:00,44.8,44.8,30.03,NW,309,0.0,1.0,100,0.00,,OVC014,0.05,VWS V14.00,2013-01-02 10:25:00,
2013-01-02 05:30:00,44.6,44.6,30.04,NW,309,0.0,2.0,100,0.00,,OVC014,0.05,VWS V14.00,2013-01-02 10:30:00,
2013-01-02 05:35:00,44.5,44.5,30.04,NW,309,0.0,0.0,100,0.00,,OVC014,0.05,VWS V14.00,2013-01-02 10:35:00,
2013-01-02 05:40:00,44.5,44.5,30.04,NW,309,0.0,1.0,100,0.00,,OVC014,0.05,VWS V14.00,2013-01-02 10:40:00,
2013-01-02 05:45:00,44.5,44.5,30.05,NW,309,0.0,2.0,100,0.00,,OVC043,0.05,VWS V14.00,2013-01-02 10:45:00,
2013-01-02 05:50:00,44.3,44.3,30.05,NW,309,0.0,2.0,100,0.00,,OVC043,0.05,VWS V14.00,2013-01-02 10:50:00,
2013-01-02 05:55:00,44.2,44.2,30.05,South,179,0.0,1.0,100,0.00,,OVC043,0.05,VWS V14.00,2013-01-02 10:55:00,
2013-01-02 06:00:00,44.1,44.1,30.05,West,281,0.0,4.0,100,0.00,,OVC043,0.05,VWS V14.00,2013-01-02 11:00:00,
2013-01-02 06:05:00,43.9,43.9,30.05,WSW,258,0.0,5.0,100,0.00,,OVC043,0.05,VWS V14.00,2013-01-02 11:05:00,
2013-01-02 06:10:00,43.9,43.9,30.05,NE,56,1.0,5.0,100,0.00,,OVC043,0.05,VWS V14.00,2013-01-02 11:10:00,
2013-01-02 06:15:00,43.8,43.8,30.05,NW,306,2.0,4.0,100,0.00,,OVC043,0.05,VWS V14.00,2013-01-02 11:15:00,
2013-01-02 06:20:00,43.5,43.5,30.05,North,350,0.0,4.0,100,0.00,,OVC043,0.05,VWS V14.00,2013-01-02 11:20:00,
2013-01-02 06:25:00,43.3,43.3,30.05,WNW,286,1.0,4.0,100,0.00,,OVC043,0.05,VWS V14.00,2013-01-02 11:25:00,
2013-01-02 06:30:00,43.3,43.3,30.06,WNW,286,0.0,4.0,100,0.00,,OVC043,0.05,VWS V14.00,2013-01-02 11:30:00,
2013-01-02 06:35:00,43.2,43.2,30.06,WNW,290,4.0,6.0,100,0.00,,OVC043,0.05,VWS V14.00,2013-01-02 11:35:00,
2013-01-02 06:40:00,43.1,43.1,30.06,NNW,346,0.0,6.0,100,0.00,,OVC043,0.05,VWS V14.00,2013-01-02 11:40:00,
2013-01-02 06:45:00,42.8,42.8,30.07,NNE,28,0.0,5.0,100,0.00,,OVC048,0.05,VWS V14.00,2013-01-02 11:45:00,
2013-01-02 06:50:00,42.6,42.6,30.07,SSW,201,1.0,5.0,100,0.00,,OVC048,0.05,VWS V14.00,2013-01-02 11:50:00,
2013-01-02 06:55:00,42.5,42.5,30.07,NE,35,0.0,4.0,100,0.00,,OVC048,0.05,VWS V14.00,2013-01-02 11:55:00,
2013-01-02 07:00:00,42.5,42.5,30.07,ENE,69,0.0,4.0,100,0.00,,OVC048,0.05,VWS V14.00,2013-01-02 12:00:00,
2013-01-02 07:05:00,42.3,42.3,30.07,NNW,338,0.0,4.0,100,0.00,,OVC048,0.05,VWS V14.00,2013-01-02 12:05:00,
2013-01-02 07:10:00,42.3,42.3,30.07,WNW,286,0.0,4.0,100,0.00,,OVC048,0.05,VWS V14.00,2013-01-02 12:10:00,
2013-01-02 07:15:00,42.2,42.2,30.09,NE,49,0.0,3.0,100,0.00,,OVC048,0.05,VWS V14.00,2013-01-02 12:15:00,
2013-01-02 07:20:00,42.2,42.2,30.09,ESE,117,0.0,3.0,100,0.00,,OVC048,0.05,VWS V14.00,2013-01-02 12:20:00,
2013-01-02 07:25:00,42.1,42.1,30.09,ESE,117,0.0,1.0,100,0.00,,OVC048,0.05,VWS V14.00,2013-01-02 12:25:00,
2013-01-02 07:30:00,41.9,41.9,30.09,NW,307,0.0,4.0,100,0.00,,OVC048,0.05,VWS V14.00,2013-01-02 12:30:00,
2013-01-02 07:35:00,41.8,41.8,30.09,West,270,3.0,4.0,100,0.00,,OVC048,0.05,VWS V14.00,2013-01-02 12:35:00,
2013-01-02 07:40:00,41.8,41.8,30.09,SW,220,0.0,6.0,100,0.00,,OVC048,0.05,VWS V14.00,2013-01-02 12:40:00,
2013-01-02 07:45:00,41.6,41.6,30.09,NW,306,0.0,3.0,100,0.00,,OVC048,0.05,VWS V14.00,2013-01-02 12:45:00,
2013-01-02 07:50:00,41.5,41.2,30.09,ENE,57,0.0,3.0,99,0.00,,OVC048,0.05,VWS V14.00,2013-01-02 12:50:00,
2013-01-02 07:55:00,41.3,41.0,30.09,WNW,294,1.0,3.0,99,0.00,,OVC010,0.05,VWS V14.00,2013-01-02 12:55:00,
2013-01-02 08:00:00,41.2,40.9,30.10,NW,323,1.0,5.0,99,0.00,,OVC010,0.05,VWS V14.00,2013-01-02 13:00:00,
2013-01-02 08:05:00,41.2,40.7,30.10,WSW,242,0.0,3.0,98,0.00,,OVC010,0.05,VWS V14.00,2013-01-02 13:05:00,
2013-01-02 08:10:00,41.1,40.6,30.10,WSW,242,0.0,3.0,98,0.00,,OVC010,0.05,VWS V14.00,2013-01-02 13:10:00,
2013-01-02 08:15:00,41.2,40.7,30.09,North,351,0.0,2.0,98,0.00,,OVC010,0.05,VWS V14.00,2013-01-02 13:15:00,
2013-01-02 08:20:00,41.1,40.6,30.09,West,267,0.0,4.0,98,0.00,,OVC010,0.05,VWS V14.00,2013-01-02 13:20:00,
2013-01-02 08:25:00,41.1,40.6,30.09,NNW,348,1.0,3.0,98,0.00,,OVC010,0.05,VWS V14.00,2013-01-02 13:25:00,
2013-01-02 08:30:00,41.1,40.3,30.12,North,351,4.0,6.0,97,0.00,,OVC010,0.05,VWS V14.00,2013-01-02 13:30:00,
2013-01-02 08:35:00,40.9,40.1,30.12,NE,52,2.0,4.0,97,0.00,,OVC010,0.05,VWS V14.00,2013-01-02 13:35:00,
2013-01-02 08:40:00,40.9,39.8,30.12,SW,214,0.0,4.0,96,0.00,,OVC010,0.05,VWS V14.00,2013-01-02 13:40:00,
2013-01-02 08:45:00,40.8,39.8,30.12,SW,214,0.0,7.0,96,0.00,,OVC010,0.05,VWS V14.00,2013-01-02 13:45:00,
2013-01-02 08:50:00,40.8,39.8,30.12,North,351,0.0,9.0,96,0.00,,OVC010,0.05,VWS V14.00,2013-01-02 13:50:00,
2013-01-02 08:55:00,40.9,39.8,30.12,SSW,200,1.0,1.0,96,0.00,,OVC010,0.05,VWS V14.00,2013-01-02 13:55:00,
2013-01-02 09:00:00,40.9,39.8,30.12,NNW,333,0.0,5.0,96,0.00,,OVC010,0.05,VWS V14.00,2013-01-02 14:00:00,
2013-01-02 09:05:00,40.9,39.8,30.12,North,360,0.0,2.0,96,0.00,,OVC010,0.05,VWS V14.00,2013-01-02 14:05:00,
2013-01-02 09:10:00,40.9,39.8,30.12,North,360,0.0,2.0,96,0.00,,OVC010,0.05,VWS V14.00,2013-01-02 14:10:00,
2013-01-02 09:15:00,40.9,39.8,30.13,West,273,0.0,2.0,96,0.00,,OVC010,0.05,VWS V14.00,2013-01-02 14:15:00,
2013-01-02 09:20:00,40.9,39.8,30.13,North,351,0.0,3.0,96,0.00,,OVC010,0.05,VWS V14.00,2013-01-02 14:20:00,
2013-01-02 09:25:00,40.9,39.8,30.13,WNW,294,1.0,3.0,96,0.00,,OVC010,0.05,VWS V14.00,2013-01-02 14:25:00,
2013-01-02 09:30:00,40.9,39.8,30.13,West,269,0.0,3.0,96,0.00,,OVC010,0.05,VWS V14.00,2013-01-02 14:30:00,
2013-01-02 09:35:00,40.9,39.6,30.13,North,351,0.0,4.0,95,0.00,,OVC010,0.05,VWS V14.00,2013-01-02 14:35:00,
2013-01-02 09:40:00,41.1,39.8,30.13,North,9,0.0,4.0,95,0.00,,OVC010,0.05,VWS V14.00,2013-01-02 14:40:00,
2013-01-02 09:45:00,41.1,39.8,30.13,West,269,0.0,5.0,95,0.00,,OVC010,0.05,VWS V14.00,2013-01-02 14:45:00,
2013-01-02 09:50:00,41.1,39.5,30.14,West,278,0.0,5.0,94,0.00,,OVC010,0.05,VWS V14.00,2013-01-02 14:50:00,
2013-01-02 09:55:00,41.2,39.9,30.14,West,278,0.0,2.0,95,0.00,,OVC010,0.05,VWS V14.00,2013-01-02 14:55:00,
2013-01-02 10:00:00,41.3,40.0,30.14,NW,315,0.0,3.0,95,0.00,,OVC010,0.05,VWS V14.00,2013-01-02 15:00:00,
2013-01-02 10:04:00,41.3,39.7,30.15,NW,323,2.0,4.0,94,0.00,,OVC010,0.05,VWS V14.00,2013-01-02 15:04:00,
2013-01-02 10:09:00,41.2,39.3,30.15,WNW,295,0.0,5.0,93,0.00,,OVC010,0.05,VWS V14.00,2013-01-02 15:09:00,
2013-01-02 10:10:00,41.2,39.3,30.15,WNW,292,0.0,5.0,93,0.00,,CLR,0.05,VWS V14.00,2013-01-02 15:10:00,
2013-01-02 10:14:00,41.2,39.3,30.15,WNW,293,0.0,3.0,93,0.00,,OVC010,0.05,VWS V14.00,2013-01-02 15:14:00,
2013-01-02 10:19:00,41.2,39.3,30.16,NNW,346,0.0,3.0,93,0.00,,OVC010,0.05,VWS V14.00,2013-01-02 15:19:00,
2013-01-02 10:20:00,41.2,39.3,30.16,NNW,346,0.0,3.0,93,0.00,,CLR,0.05,VWS V14.00,2013-01-02 15:20:00,
2013-01-02 10:24:00,41.3,39.7,30.16,WNW,288,1.0,2.0,94,0.00,,OVC010,0.05,VWS V14.00,2013-01-02 15:24:00,
2013-01-02 10:29:00,41.2,39.3,30.16,NNW,342,0.0,5.0,93,0.00,,OVC010,0.05,VWS V14.00,2013-01-02 15:29:00,
2013-01-02 10:30:00,41.2,39.3,30.14,WSW,252,0.0,5.0,93,0.00,,CLR,0.05,VWS V14.00,2013-01-02 15:30:00,
2013-01-02 10:34:00,41.2,39.3,30.14,North,351,3.0,3.0,93,0.00,,OVC010,0.05,VWS V14.00,2013-01-02 15:34:00,
2013-01-02 10:39:00,41.2,39.3,30.14,WNW,290,2.0,4.0,93,0.00,,OVC010,0.05,VWS V14.00,2013-01-02 15:39:00,
2013-01-02 10:40:00,41.2,39.3,30.14,WNW,290,0.0,4.0,93,0.00,,CLR,0.05,VWS V14.00,2013-01-02 15:40:00,
2013-01-02 10:44:00,41.2,39.3,30.14,WNW,290,0.0,1.0,93,0.00,,OVC012,0.05,VWS V14.00,2013-01-02 15:44:00,
2013-01-02 10:49:00,41.3,39.2,30.16,NNW,336,2.0,4.0,92,0.00,,OVC012,0.05,VWS V14.00,2013-01-02 15:49:00,
2013-01-02 10:50:00,41.3,39.2,30.16,NNW,336,0.0,4.0,92,0.00,,CLR,0.05,VWS V14.00,2013-01-02 15:50:00,
2013-01-02 10:54:00,41.5,39.6,30.16,ENE,59,0.0,3.0,93,0.00,,OVC012,0.05,VWS V14.00,2013-01-02 15:54:00,
2013-01-02 10:59:00,41.6,39.5,30.16,WNW,295,0.0,4.0,92,0.00,,OVC012,0.05,VWS V14.00,2013-01-02 15:59:00,
2013-01-02 11:00:00,41.6,39.5,30.15,NNE,22,1.0,4.0,92,0.00,,CLR,0.05,VWS V14.00,2013-01-02 16:00:00,
2013-01-02 11:04:00,41.6,39.2,30.15,NNE,22,0.0,2.0,91,0.00,,OVC012,0.05,VWS V14.00,2013-01-02 16:04:00,
2013-01-02 11:09:00,41.5,39.1,30.15,WSW,254,0.0,3.0,91,0.00,,OVC012,0.05,VWS V14.00,2013-01-02 16:09:00,
2013-01-02 11:10:00,41.5,39.1,30.15,NNW,329,0.0,3.0,91,0.00,,CLR,0.05,VWS V14.00,2013-01-02 16:10:00,
2013-01-02 11:14:00,41.6,39.5,30.15,North,351,0.0,6.0,92,0.00,,OVC012,0.05,VWS V14.00,2013-01-02 16:14:00,
2013-01-02 11:19:00,41.5,38.8,30.17,West,280,0.0,7.0,90,0.00,,OVC012,0.05,VWS V14.00,2013-01-02 16:19:00,
2013-01-02 11:20:00,41.5,38.8,30.17,West,280,1.0,7.0,90,0.00,,CLR,0.05,VWS V14.00,2013-01-02 16:20:00,
2013-01-02 11:24:00,41.6,39.5,30.17,WSW,248,4.0,6.0,92,0.00,,OVC012,0.05,VWS V14.00,2013-01-02 16:24:00,
2013-01-02 11:29:00,41.5,39.1,30.17,NW,308,0.0,6.0,91,0.00,,OVC012,0.05,VWS V14.00,2013-01-02 16:29:00,
2013-01-02 11:30:00,41.5,39.1,30.17,WSW,256,0.0,6.0,91,0.00,,CLR,0.05,VWS V14.00,2013-01-02 16:30:00,
2013-01-02 11:34:00,41.6,39.2,30.17,North,9,0.0,3.0,91,0.00,,OVC012,0.05,VWS V14.00,2013-01-02 16:34:00,
2013-01-02 11:39:00,41.6,39.2,30.17,North,5,0.0,3.0,91,0.00,,OVC012,0.05,VWS V14.00,2013-01-02 16:39:00,
2013-01-02 11:40:00,41.6,38.9,30.17,North,5,0.0,3.0,90,0.00,,CLR,0.05,VWS V14.00,2013-01-02 16:40:00,
2013-01-02 11:44:00,41.6,39.2,30.17,NNW,341,2.0,3.0,91,0.00,,OVC014,0.05,VWS V14.00,2013-01-02 16:44:00,
2013-01-02 11:49:00,41.6,38.9,30.15,NW,316,0.0,3.0,90,0.00,,OVC014,0.05,VWS V14.00,2013-01-02 16:49:00,
2013-01-02 11:50:00,41.6,38.9,30.15,NW,316,0.0,3.0,90,0.00,,CLR,0.05,VWS V14.00,2013-01-02 16:50:00,
2013-01-02 11:54:00,41.6,38.9,30.15,NE,34,0.0,3.0,90,0.00,,OVC014,0.05,VWS V14.00,2013-01-02 16:54:00,
2013-01-02 11:59:00,41.6,38.6,30.15,NW,315,0.0,6.0,89,0.00,,OVC014,0.05,VWS V14.00,2013-01-02 16:59:00,
2013-01-02 12:00:00,41.5,38.5,30.15,NW,315,0.0,6.0,89,0.00,,CLR,0.05,VWS V14.00,2013-01-02 17:00:00,
2013-01-02 12:04:00,41.6,38.9,30.15,West,261,0.0,2.0,90,0.00,,OVC014,0.05,VWS V14.00,2013-01-02 17:04:00,
2013-01-02 12:09:00,41.8,39.1,30.15,NW,321,3.0,4.0,90,0.00,,OVC014,0.05,VWS V14.00,2013-01-02 17:09:00,
2013-01-02 12:10:00,41.8,38.5,30.15,NW,323,0.0,4.0,88,0.00,,CLR,0.05,VWS V14.00,2013-01-02 17:10:00,
2013-01-02 12:14:00,41.8,38.5,30.15,West,273,0.0,6.0,88,0.00,,OVC014,0.05,VWS V14.00,2013-01-02 17:14:00,
2013-01-02 12:19:00,41.8,38.8,30.14,West,259,1.0,6.0,89,0.00,,OVC014,0.05,VWS V14.00,2013-01-02 17:19:00,
2013-01-02 12:20:00,41.9,38.9,30.14,West,267,0.0,6.0,89,0.00,,CLR,0.05,VWS V14.00,2013-01-02 17:20:00,
2013-01-02 12:24:00,41.9,38.6,30.14,NNW,340,1.0,1.0,88,0.00,,OVC014,0.05,VWS V14.00,2013-01-02 17:24:00,
2013-01-02 12:29:00,41.8,38.2,30.14,NW,312,0.0,2.0,87,0.00,,OVC014,0.05,VWS V14.00,2013-01-02 17:29:00,
2013-01-02 12:30:00,41.8,38.5,30.14,NE,49,0.0,2.0,88,0.00,,CLR,0.05,VWS V14.00,2013-01-02 17:30:00,
2013-01-02 12:34:00,41.8,38.5,30.14,NNW,328,0.0,2.0,88,0.00,,OVC014,0.05,VWS V14.00,2013-01-02 17:34:00,
2013-01-02 12:39:00,41.8,38.2,30.14,NNW,329,0.0,2.0,87,0.00,,OVC014,0.05,VWS V14.00,2013-01-02 17:39:00,
2013-01-02 12:40:00,41.8,38.5,30.14,NNW,329,1.0,2.0,88,0.00,,CLR,0.05,VWS V14.00,2013-01-02 17:40:00,
2013-01-02 12:44:00,41.8,38.5,30.14,North,360,0.0,2.0,88,0.00,,BKN014,0.05,VWS V14.00,2013-01-02 17:44:00,
2013-01-02 12:49:00,41.8,38.2,30.14,WNW,302,1.0,4.0,87,0.00,,BKN014,0.05,VWS V14.00,2013-01-02 17:49:00,
2013-01-02 12:50:00,41.6,38.0,30.14,East,79,0.0,4.0,87,0.00,,CLR,0.05,VWS V14.00,2013-01-02 17:50:00,
2013-01-02 12:54:00,41.6,38.0,30.14,North,350,0.0,2.0,87,0.00,,BKN014,0.05,VWS V14.00,2013-01-02 17:54:00,
2013-01-02 12:59:00,41.9,38.6,30.14,NNW,347,0.0,2.0,88,0.00,,BKN014,0.05,VWS V14.00,2013-01-02 17:59:00,
2013-01-02 13:00:00,41.9,38.3,30.14,North,351,1.0,4.0,87,0.00,,CLR,0.05,VWS V14.00,2013-01-02 18:00:00,
2013-01-02 13:04:00,41.9,38.3,30.14,NW,309,0.0,4.0,87,0.00,,BKN014,0.05,VWS V14.00,2013-01-02 18:04:00,
2013-01-02 13:09:00,42.2,37.7,30.14,NNE,19,0.0,6.0,84,0.00,,BKN014,0.05,VWS V14.00,2013-01-02 18:09:00,
2013-01-02 13:10:00,42.3,38.7,30.14,NNE,19,0.0,6.0,87,0.00,,CLR,0.05,VWS V14.00,2013-01-02 18:10:00,
2013-01-02 13:14:00,42.3,38.1,30.14,North,5,0.0,5.0,85,0.00,,BKN014,0.05,VWS V14.00,2013-01-02 18:14:00,
2013-01-02 13:19:00,42.3,38.1,30.14,NNW,332,0.0,5.0,85,0.00,,BKN014,0.05,VWS V14.00,2013-01-02 18:19:00,
2013-01-02 13:20:00,42.3,38.1,30.14,NNW,332,1.0,5.0,85,0.00,,CLR,0.05,VWS V14.00,2013-01-02 18:20:00,
2013-01-02 13:24:00,42.3,38.1,30.14,WSW,258,0.0,4.0,85,0.00,,BKN014,0.05,VWS V14.00,2013-01-02 18:24:00,
2013-01-02 13:29:00,42.3,38.4,30.14,NE,42,0.0,4.0,86,0.00,,BKN014,0.05,VWS V14.00,2013-01-02 18:29:00,
2013-01-02 13:30:00,42.3,38.1,30.12,NE,42,0.0,4.0,85,0.00,,CLR,0.05,VWS V14.00,2013-01-02 18:30:00,
2013-01-02 13:34:00,42.3,38.4,30.12,WSW,238,0.0,2.0,86,0.00,,BKN014,0.05,VWS V14.00,2013-01-02 18:34:00,
2013-01-02 13:39:00,42.6,39.3,30.12,WSW,249,4.0,6.0,88,0.00,,BKN014,0.05,VWS V14.00,2013-01-02 18:39:00,
2013-01-02 13:40:00,42.5,38.3,30.12,NW,319,0.0,6.0,85,0.00,,CLR,0.05,VWS V14.00,2013-01-02 18:40:00,
2013-01-02 13:44:00,42.5,38.3,30.12,NW,319,0.0,1.0,85,0.00,,SCT014,0.05,VWS V14.00,2013-01-02 18:44:00,
2013-01-02 13:49:00,42.3,38.1,30.12,SW,217,0.0,3.0,85,0.00,,SCT014,0.05,VWS V14.00,2013-01-02 18:49:00,
2013-01-02 13:50:00,42.3,37.8,30.12,SW,217,0.0,3.0,84,0.00,,CLR,0.05,VWS V14.00,2013-01-02 18:50:00,
2013-01-02 13:54:00,42.3,38.1,30.12,North,349,0.0,1.0,85,0.00,,SCT014,0.05,VWS V14.00,2013-01-02 18:54:00,
2013-01-02 13:59:00,42.2,37.7,30.12,NNW,343,0.0,4.0,84,0.00,,SCT014,0.05,VWS V14.00,2013-01-02 18:59:00,
2013-01-02 14:00:00,42.2,37.7,30.11,NNW,343,0.0,4.0,84,0.00,,CLR,0.05,VWS V14.00,2013-01-02 19:00:00,
2013-01-02 14:04:00,42.2,38.0,30.11,NNW,341,0.0,2.0,85,0.00,,SCT014,0.05,VWS V14.00,2013-01-02 19:04:00,
2013-01-02 14:09:00,42.3,37.8,30.11,NNW,341,0.0,2.0,84,0.00,,SCT014,0.05,VWS V14.00,2013-01-02 19:09:00,
2013-01-02 14:10:00,42.3,38.1,30.11,NNW,341,0.0,2.0,85,0.00,,CLR,0.05,VWS V14.00,2013-01-02 19:10:00,
2013-01-02 14:14:00,42.5,38.3,30.11,North,360,0.0,1.0,85,0.00,,SCT014,0.05,VWS V14.00,2013-01-02 19:14:00,
2013-01-02 14:19:00,42.8,38.3,30.11,North,360,0.0,1.0,84,0.00,,SCT014,0.05,VWS V14.00,2013-01-02 19:19:00,
2013-01-02 14:20:00,42.8,38.3,30.11,North,360,0.0,1.0,84,0.00,,CLR,0.05,VWS V14.00,2013-01-02 19:20:00,
2013-01-02 14:24:00,42.9,38.4,30.11,NNW,341,0.0,4.0,84,0.00,,SCT014,0.05,VWS V14.00,2013-01-02 19:24:00,
2013-01-02 14:29:00,43.1,38.6,30.11,NNW,333,0.0,5.0,84,0.00,,SCT014,0.05,VWS V14.00,2013-01-02 19:29:00,
2013-01-02 14:30:00,43.2,38.4,30.11,WNW,294,1.0,5.0,83,0.00,,CLR,0.05,VWS V14.00,2013-01-02 19:30:00,
2013-01-02 14:34:00,43.5,39.0,30.11,WSW,250,1.0,3.0,84,0.00,,SCT014,0.05,VWS V14.00,2013-01-02 19:34:00,
2013-01-02 14:39:00,44.1,39.3,30.11,WNW,288,5.0,8.0,83,0.00,,SCT014,0.05,VWS V14.00,2013-01-02 19:39:00,
2013-01-02 14:40:00,44.1,38.3,30.11,West,267,2.0,8.0,80,0.00,,CLR,0.05,VWS V14.00,2013-01-02 19:40:00,
2013-01-02 14:44:00,44.1,38.3,30.11,NW,304,2.0,4.0,80,0.00,,CLR,0.05,VWS V14.00,2013-01-02 19:44:00,
2013-01-02 14:49:00,43.9,38.5,30.10,NNW,336,0.0,4.0,81,0.00,,CLR,0.05,VWS V14.00,2013-01-02 19:49:00,
2013-01-02 14:50:00,43.9,38.1,30.10,WNW,297,0.0,4.0,80,0.00,,CLR,0.05,VWS V14.00,2013-01-02 19:50:00,
2013-01-02 14:54:00,43.8,38.4,30.10,WNW,297,0.0,2.0,81,0.00,,CLR,0.05,VWS V14.00,2013-01-02 19:54:00,
2013-01-02 14:59:00,43.6,37.8,30.10,North,10,0.0,4.0,80,0.00,,CLR,0.05,VWS V14.00,2013-01-02 19:59:00,
2013-01-02 15:00:00,43.6,38.5,30.11,SW,228,0.0,4.0,82,0.00,,CLR,0.05,VWS V14.00,2013-01-02 20:00:00,
2013-01-02 15:04:00,43.6,38.5,30.11,West,281,0.0,2.0,82,0.00,,CLR,0.05,VWS V14.00,2013-01-02 20:04:00,
2013-01-02 15:09:00,43.3,37.9,30.11,NW,324,0.0,3.0,81,0.00,,CLR,0.05,VWS V14.00,2013-01-02 20:09:00,
2013-01-02 15:10:00,43.3,38.2,30.11,NW,324,0.0,3.0,82,0.00,,CLR,0.05,VWS V14.00,2013-01-02 20:10:00,
2013-01-02 15:14:00,43.3,37.9,30.11,NNW,337,1.0,3.0,81,0.00,,CLR,0.05,VWS V14.00,2013-01-02 20:14:00,
2013-01-02 15:19:00,43.2,38.1,30.11,North,360,0.0,3.0,82,0.00,,CLR,0.05,VWS V14.00,2013-01-02 20:19:00,
2013-01-02 15:20:00,43.2,38.4,30.11,NNE,26,3.0,3.0,83,0.00,,CLR,0.05,VWS V14.00,2013-01-02 20:20:00,
2013-01-02 15:24:00,43.1,38.3,30.11,WSW,242,2.0,4.0,83,0.00,,CLR,0.05,VWS V14.00,2013-01-02 20:24:00,
2013-01-02 15:29:00,42.9,38.1,30.11,NE,34,0.0,4.0,83,0.00,,CLR,0.05,VWS V14.00,2013-01-02 20:29:00,
2013-01-02 15:30:00,42.9,38.1,30.13,SW,232,3.0,4.0,83,0.00,,CLR,0.05,VWS V14.00,2013-01-02 20:30:00,
2013-01-02 15:34:00,42.8,38.0,30.13,SW,236,0.0,3.0,83,0.00,,CLR,0.05,VWS V14.00,2013-01-02 20:34:00,
2013-01-02 15:39:00,42.6,37.8,30.13,West,279,0.0,3.0,83,0.00,,CLR,0.05,VWS V14.00,2013-01-02 20:39:00,
2013-01-02 15:40:00,42.6,37.8,30.13,WNW,294,0.0,5.0,83,0.00,,CLR,0.05,VWS V14.00,2013-01-02 20:40:00,
2013-01-02 15:43:00,42.5,37.7,30.13,NW,309,0.0,1.0,83,0.00,,CLR,0.05,VWS V14.00,2013-01-02 20:43:00,
2013-01-02 15:48:00,42.3,37.5,30.13,NW,309,0.0,2.0,83,0.00,,CLR,0.05,VWS V14.00,2013-01-02 20:48:00,
2013-01-02 15:50:00,42.3,37.8,30.13,NW,309,0.0,2.0,84,0.00,,CLR,0.05,VWS V14.00,2013-01-02 20:50:00,
2013-01-02 15:53:00,42.3,37.5,30.13,NE,36,0.0,1.0,83,0.00,,CLR,0.05,VWS V14.00,2013-01-02 20:53:00,
2013-01-02 15:58:00,42.2,37.4,30.13,NW,304,3.0,5.0,83,0.00,,CLR,0.05,VWS V14.00,2013-01-02 20:58:00,
2013-01-02 16:00:00,42.1,37.3,30.13,WNW,295,1.0,5.0,83,0.00,,CLR,0.05,VWS V14.00,2013-01-02 21:00:00,
2013-01-02 16:03:00,42.1,37.3,30.13,WNW,294,2.0,3.0,83,0.00,,CLR,0.05,VWS V14.00,2013-01-02 21:03:00,
2013-01-02 16:08:00,41.9,37.4,30.13,WNW,294,0.0,3.0,84,0.00,,CLR,0.05,VWS V14.00,2013-01-02 21:08:00,
2013-01-02 16:10:00,41.9,37.4,30.13,WNW,294,0.0,3.0,84,0.00,,CLR,0.05,VWS V14.00,2013-01-02 21:10:00,
2013-01-02 16:13:00,41.9,37.4,30.13,WNW,294,0.0,0.0,84,0.00,,CLR,0.05,VWS V14.00,2013-01-02 21:13:00,
2013-01-02 16:18:00,41.9,37.4,30.13,WNW,294,0.0,1.0,84,0.00,,CLR,0.05,VWS V14.00,2013-01-02 21:18:00,
2013-01-02 16:20:00,41.8,37.3,30.13,WNW,294,0.0,1.0,84,0.00,,CLR,0.05,VWS V14.00,2013-01-02 21:20:00,
2013-01-02 16:23:00,41.8,37.3,30.13,WNW,294,0.0,0.0,84,0.00,,CLR,0.05,VWS V14.00,2013-01-02 21:23:00,
2013-01-02 16:28:00,41.8,37.3,30.13,WNW,294,0.0,0.0,84,0.00,,CLR,0.05,VWS V14.00,2013-01-02 21:28:00,
2013-01-02 16:30:00,41.6,37.1,30.13,WNW,294,0.0,1.0,84,0.00,,CLR,0.05,VWS V14.00,2013-01-02 21:30:00,
2013-01-02 16:33:00,41.6,37.4,30.13,WNW,294,0.0,0.0,85,0.00,,CLR,0.05,VWS V14.00,2013-01-02 21:33:00,
2013-01-02 16:38:00,41.6,37.1,30.13,NW,306,0.0,2.0,84,0.00,,CLR,0.05,VWS V14.00,2013-01-02 21:38:00,
2013-01-02 16:40:00,41.5,37.0,30.13,WNW,282,1.0,3.0,84,0.00,,CLR,0.05,VWS V14.00,2013-01-02 21:40:00,
2013-01-02 16:43:00,41.3,36.8,30.13,WNW,283,0.0,2.0,84,0.00,,BKN018,0.05,VWS V14.00,2013-01-02 21:43:00,
2013-01-02 16:48:00,41.3,37.1,30.14,NW,321,0.0,4.0,85,0.00,,BKN018,0.05,VWS V14.00,2013-01-02 21:48:00,
2013-01-02 16:50:00,41.2,37.0,30.14,WNW,292,0.0,5.0,85,0.00,,CLR,0.05,VWS V14.00,2013-01-02 21:50:00,
2013-01-02 16:53:00,41.2,37.0,30.14,WNW,292,0.0,0.0,85,0.00,,BKN018,0.05,VWS V14.00,2013-01-02 21:53:00,
2013-01-02 16:58:00,41.2,37.3,30.14,WNW,292,0.0,0.0,86,0.00,,BKN018,0.05,VWS V14.00,2013-01-02 21:58:00,
2013-01-02 17:00:00,41.1,36.9,30.13,WNW,300,0.0,3.0,85,0.00,,CLR,0.05,VWS V14.00,2013-01-02 22:00:00,
2013-01-02 17:03:00,41.1,36.9,30.13,WNW,300,0.0,0.0,85,0.00,,BKN018,0.05,VWS V14.00,2013-01-02 22:03:00,
2013-01-02 17:08:00,40.9,36.8,30.13,WNW,300,0.0,2.0,85,0.00,,BKN018,0.05,VWS V14.00,2013-01-02 22:08:00,
2013-01-02 17:10:00,40.9,37.0,30.13,WNW,300,0.0,2.0,86,0.00,,CLR,0.05,VWS V14.00,2013-01-02 22:10:00,
2013-01-02 17:13:00,40.9,37.0,30.13,ESE,116,0.0,0.0,86,0.00,,BKN018,0.05,VWS V14.00,2013-01-02 22:13:00,
2013-01-02 17:18:00,40.8,36.9,30.13,North,360,0.0,1.0,86,0.00,,BKN018,0.05,VWS V14.00,2013-01-02 22:18:00,
2013-01-02 17:20:00,40.8,36.9,30.13,North,360,0.0,1.0,86,0.00,,CLR,0.05,VWS V14.00,2013-01-02 22:20:00,
2013-01-02 17:23:00,40.8,36.9,30.13,North,360,0.0,1.0,86,0.00,,BKN018,0.05,VWS V14.00,2013-01-02 22:23:00,
2013-01-02 17:28:00,40.6,36.8,30.13,North,360,0.0,1.0,86,0.00,,BKN018,0.05,VWS V14.00,2013-01-02 22:28:00,
2013-01-02 17:30:00,40.6,36.8,30.13,North,360,0.0,1.0,86,0.00,,CLR,0.05,VWS V14.00,2013-01-02 22:30:00,
2013-01-02 17:33:00,40.6,36.8,30.13,NNW,327,0.0,3.0,86,0.00,,BKN018,0.05,VWS V14.00,2013-01-02 22:33:00,
2013-01-02 17:38:00,40.5,36.9,30.13,WSW,238,0.0,3.0,87,0.00,,BKN018,0.05,VWS V14.00,2013-01-02 22:38:00,
2013-01-02 17:40:00,40.5,36.7,30.13,South,188,0.0,3.0,86,0.00,,CLR,0.05,VWS V14.00,2013-01-02 22:40:00,
2013-01-02 17:43:00,40.3,36.5,30.13,North,351,0.0,2.0,86,0.00,,SCT018,0.05,VWS V14.00,2013-01-02 22:43:00,
2013-01-02 17:48:00,40.3,36.8,30.12,WSW,250,0.0,2.0,87,0.00,,SCT018,0.05,VWS V14.00,2013-01-02 22:48:00,
2013-01-02 17:50:00,40.2,36.7,30.12,WSW,250,0.0,2.0,87,0.00,,CLR,0.05,VWS V14.00,2013-01-02 22:50:00,
2013-01-02 17:53:00,40.2,36.7,30.12,WSW,250,0.0,0.0,87,0.00,,SCT018,0.05,VWS V14.00,2013-01-02 22:53:00,
2013-01-02 17:58:00,40.2,36.9,30.12,WSW,250,0.0,0.0,88,0.00,,SCT018,0.05,VWS V14.00,2013-01-02 22:58:00,
2013-01-02 18:00:00,40.2,36.7,30.14,North,360,1.0,3.0,87,0.00,,CLR,0.05,VWS V14.00,2013-01-02 23:00:00,
2013-01-02 18:03:00,40.1,36.5,30.14,North,360,0.0,2.0,87,0.00,,SCT018,0.05,VWS V14.00,2013-01-02 23:03:00,
2013-01-02 18:08:00,40.1,36.5,30.14,West,263,0.0,2.0,87,0.00,,SCT018,0.05,VWS V14.00,2013-01-02 23:08:00,
2013-01-02 18:10:00,40.1,36.5,30.14,WNW,302,0.0,2.0,87,0.00,,CLR,0.05,VWS V14.00,2013-01-02 23:10:00,
2013-01-02 18:13:00,39.9,36.3,30.14,NW,311,0.0,3.0,87,0.00,,SCT018,0.05,VWS V14.00,2013-01-02 23:13:00,
2013-01-02 18:18:00,39.9,36.6,30.15,North,360,0.0,3.0,88,0.00,,SCT018,0.05,VWS V14.00,2013-01-02 23:18:00,
2013-01-02 18:20:00,39.9,36.6,30.15,WSW,247,0.0,3.0,88,0.00,,CLR,0.05,VWS V14.00,2013-01-02 23:20:00,
2013-01-02 18:23:00,39.8,36.5,30.15,NNW,337,0.0,1.0,88,0.00,,SCT018,0.05,VWS V14.00,2013-01-02 23:23:00,
2013-01-02 18:28:00,39.8,36.2,30.15,West,262,0.0,1.0,87,0.00,,SCT018,0.05,VWS V14.00,2013-01-02 23:28:00,
2013-01-02 18:30:00,39.6,36.1,30.15,NNE,23,0.0,2.0,87,0.00,,CLR,0.05,VWS V14.00,2013-01-02 23:30:00,
2013-01-02 18:33:00,39.6,36.3,30.15,NNE,23,0.0,0.0,88,0.00,,SCT018,0.05,VWS V14.00,2013-01-02 23:33:00,
2013-01-02 18:38:00,39.6,36.3,30.15,WNW,285,0.0,1.0,88,0.00,,SCT018,0.05,VWS V14.00,2013-01-02 23:38:00,
2013-01-02 18:40:00,39.6,36.3,30.15,WNW,284,0.0,1.0,88,0.00,,CLR,0.05,VWS V14.00,2013-01-02 23:40:00,
2013-01-02 18:43:00,39.6,36.3,30.15,WNW,286,0.0,2.0,88,0.00,,SCT016,0.05,VWS V14.00,2013-01-02 23:43:00,
2013-01-02 18:48:00,39.6,36.3,30.16,WNW,286,0.0,2.0,88,0.00,,SCT016,0.05,VWS V14.00,2013-01-02 23:48:00,
2013-01-02 18:50:00,39.6,36.6,30.16,WNW,286,0.0,2.0,89,0.00,,CLR,0.05,VWS V14.00,2013-01-02 23:50:00,
2013-01-02 18:53:00,39.6,36.6,30.16,WNW,286,0.0,0.0,89,0.00,,BKN016,0.05,VWS V14.00,2013-01-02 23:53:00,
2013-01-02 18:58:00,39.5,36.2,30.16,ENE,76,1.0,2.0,88,0.00,,BKN016,0.05,VWS V14.00,2013-01-02 23:58:00,
2013-01-02 19:00:00,39.5,36.2,30.17,ENE,76,0.0,2.0,88,0.00,,CLR,0.05,VWS V14.00,2013-01-03 00:00:00,
2013-01-02 19:03:00,39.5,36.2,30.17,ENE,76,0.0,1.0,88,0.00,,BKN016,0.05,VWS V14.00,2013-01-03 00:03:00,
2013-01-02 19:08:00,39.5,36.2,30.17,WSW,253,1.0,3.0,88,0.00,,BKN016,0.05,VWS V14.00,2013-01-03 00:08:00,
2013-01-02 19:10:00,39.5,36.2,30.17,South,176,0.0,3.0,88,0.00,,CLR,0.05,VWS V14.00,2013-01-03 00:10:00,
2013-01-02 19:13:00,39.5,36.2,30.17,West,278,0.0,4.0,88,0.00,,BKN016,0.05,VWS V14.00,2013-01-03 00:13:00,
2013-01-02 19:18:00,39.5,36.2,30.17,West,278,0.0,4.0,88,0.00,,BKN016,0.05,VWS V14.00,2013-01-03 00:18:00,
2013-01-02 19:20:00,39.3,36.0,30.17,West,278,0.0,4.0,88,0.00,,CLR,0.05,VWS V14.00,2013-01-03 00:20:00,
2013-01-02 19:23:00,39.3,36.0,30.17,West,278,0.0,1.0,88,0.00,,BKN016,0.05,VWS V14.00,2013-01-03 00:23:00,
2013-01-02 19:28:00,39.3,36.3,30.17,West,278,0.0,1.0,89,0.00,,BKN016,0.05,VWS V14.00,2013-01-03 00:28:00,
2013-01-02 19:30:00,39.3,36.6,30.17,West,278,0.0,1.0,90,0.00,,CLR,0.05,VWS V14.00,2013-01-03 00:30:00,
2013-01-02 19:33:00,39.3,36.6,30.17,West,278,0.0,1.0,90,0.00,,BKN016,0.05,VWS V14.00,2013-01-03 00:33:00,
2013-01-02 19:38:00,39.3,36.3,30.17,West,278,0.0,1.0,89,0.00,,BKN016,0.05,VWS V14.00,2013-01-03 00:38:00,
2013-01-02 19:40:00,39.3,36.3,30.17,West,278,0.0,1.0,89,0.00,,CLR,0.05,VWS V14.00,2013-01-03 00:40:00,
2013-01-02 19:43:00,39.3,36.3,30.17,West,278,0.0,0.0,89,0.00,,BKN016,0.05,VWS V14.00,2013-01-03 00:43:00,
2013-01-02 19:48:00,39.3,36.3,30.17,West,278,0.0,2.0,89,0.00,,BKN016,0.05,VWS V14.00,2013-01-03 00:48:00,
2013-01-02 19:50:00,39.3,36.6,30.17,West,278,0.0,2.0,90,0.00,,CLR,0.05,VWS V14.00,2013-01-03 00:50:00,
2013-01-02 19:53:00,39.3,36.6,30.17,West,278,0.0,2.0,90,0.00,,BKN014,0.05,VWS V14.00,2013-01-03 00:53:00,
2013-01-02 19:58:00,39.3,36.6,30.17,West,281,0.0,3.0,90,0.00,,BKN014,0.05,VWS V14.00,2013-01-03 00:58:00,
2013-01-02 20:00:00,39.3,36.6,30.20,West,281,0.0,3.0,90,0.00,,CLR,0.05,VWS V14.00,2013-01-03 01:00:00,
2013-01-02 20:03:00,39.3,36.6,30.20,NW,311,0.0,2.0,90,0.00,,BKN014,0.05,VWS V14.00,2013-01-03 01:03:00,
2013-01-02 20:08:00,39.3,36.3,30.20,West,273,0.0,4.0,89,0.00,,BKN014,0.05,VWS V14.00,2013-01-03 01:08:00,
2013-01-02 20:10:00,39.3,36.3,30.20,NNW,336,0.0,5.0,89,0.00,,CLR,0.05,VWS V14.00,2013-01-03 01:10:00,
2013-01-02 20:13:00,39.3,36.6,30.20,WNW,302,0.0,2.0,90,0.00,,BKN014,0.05,VWS V14.00,2013-01-03 01:13:00,
2013-01-02 20:18:00,39.2,36.2,30.21,WSW,246,0.0,3.0,89,0.00,,BKN014,0.05,VWS V14.00,2013-01-03 01:18:00,
2013-01-02 20:20:00,39.2,36.2,30.21,WSW,246,0.0,3.0,89,0.00,,CLR,0.05,VWS V14.00,2013-01-03 01:20:00,
2013-01-02 20:23:00,39.2,36.2,30.21,WSW,246,0.0,0.0,89,0.00,,BKN014,0.05,VWS V14.00,2013-01-03 01:23:00,
2013-01-02 20:28:00,39.2,36.2,30.21,WSW,250,0.0,1.0,89,0.00,,BKN014,0.05,VWS V14.00,2013-01-03 01:28:00,
2013-01-02 20:30:00,39.2,36.2,30.19,WSW,250,1.0,1.0,89,0.00,,CLR,0.05,VWS V14.00,2013-01-03 01:30:00,
2013-01-02 20:33:00,39.2,36.2,30.19,WSW,250,0.0,2.0,89,0.00,,BKN014,0.05,VWS V14.00,2013-01-03 01:33:00,
2013-01-02 20:38:00,39.2,36.2,30.19,WSW,250,0.0,2.0,89,0.00,,BKN014,0.05,VWS V14.00,2013-01-03 01:38:00,
2013-01-02 20:40:00,39.2,36.2,30.19,WSW,250,0.0,2.0,89,0.00,,CLR,0.05,VWS V14.00,2013-01-03 01:40:00,
2013-01-02 20:43:00,39.2,36.5,30.19,WSW,250,0.0,0.0,90,0.00,,BKN014,0.05,VWS V14.00,2013-01-03 01:43:00,
2013-01-02 20:48:00,39.1,36.4,30.19,WSW,250,1.0,1.0,90,0.00,,BKN014,0.05,VWS V14.00,2013-01-03 01:48:00,
2013-01-02 20:50:00,39.1,36.4,30.19,WSW,250,0.0,1.0,90,0.00,,CLR,0.05,VWS V14.00,2013-01-03 01:50:00,
2013-01-02 20:53:00,39.2,36.5,30.19,WSW,250,0.0,0.0,90,0.00,,SCT014,0.05,VWS V14.00,2013-01-03 01:53:00,
2013-01-02 20:58:00,39.2,36.5,30.19,WSW,248,0.0,2.0,90,0.00,,SCT014,0.05,VWS V14.00,2013-01-03 01:58:00,
2013-01-02 21:00:00,39.1,36.4,30.20,WSW,248,0.0,2.0,90,0.00,,CLR,0.05,VWS V14.00,2013-01-03 02:00:00,
2013-01-02 21:03:00,39.1,36.4,30.20,WSW,248,0.0,0.0,90,0.00,,SCT014,0.05,VWS V14.00,2013-01-03 02:03:00,
2013-01-02 21:08:00,39.1,36.4,30.20,WSW,254,0.0,2.0,90,0.00,,SCT014,0.05,VWS V14.00,2013-01-03 02:08:00,
2013-01-02 21:10:00,39.1,36.4,30.20,WSW,255,0.0,2.0,90,0.00,,CLR,0.05,VWS V14.00,2013-01-03 02:10:00,
2013-01-02 21:13:00,39.1,36.4,30.20,WSW,255,0.0,1.0,90,0.00,,SCT014,0.05,VWS V14.00,2013-01-03 02:13:00,
2013-01-02 21:18:00,39.1,36.4,30.21,WSW,255,0.0,1.0,90,0.00,,SCT014,0.05,VWS V14.00,2013-01-03 02:18:00,
2013-01-02 21:20:00,39.1,36.4,30.21,WSW,255,0.0,1.0,90,0.00,,CLR,0.05,VWS V14.00,2013-01-03 02:20:00,
2013-01-02 21:23:00,39.1,36.4,30.21,WSW,255,0.0,0.0,90,0.00,,SCT014,0.05,VWS V14.00,2013-01-03 02:23:00,
2013-01-02 21:28:00,39.1,36.4,30.21,NW,323,0.0,2.0,90,0.00,,SCT014,0.05,VWS V14.00,2013-01-03 02:28:00,
2013-01-02 21:30:00,39.1,36.4,30.21,NW,311,0.0,4.0,90,0.00,,CLR,0.05,VWS V14.00,2013-01-03 02:30:00,
2013-01-02 21:33:00,39.1,36.4,30.21,East,90,0.0,1.0,90,0.00,,SCT014,0.05,VWS V14.00,2013-01-03 02:33:00,
2013-01-02 21:38:00,39.1,36.4,30.21,ESE,121,0.0,1.0,90,0.00,,SCT014,0.05,VWS V14.00,2013-01-03 02:38:00,
2013-01-02 21:40:00,39.1,36.4,30.21,ESE,121,0.0,1.0,90,0.00,,CLR,0.05,VWS V14.00,2013-01-03 02:40:00,
2013-01-02 21:43:00,39.1,36.4,30.21,ESE,121,0.0,1.0,90,0.00,,CLR,0.05,VWS V14.00,2013-01-03 02:43:00,
2013-01-02 21:48:00,39.1,36.4,30.20,ESE,121,0.0,1.0,90,0.00,,CLR,0.05,VWS V14.00,2013-01-03 02:48:00,
2013-01-02 21:50:00,39.1,36.4,30.20,WNW,301,0.0,1.0,90,0.00,,CLR,0.05,VWS V14.00,2013-01-03 02:50:00,
2013-01-02 21:53:00,39.1,36.4,30.20,WNW,301,0.0,1.0,90,0.00,,CLR,0.05,VWS V14.00,2013-01-03 02:53:00,
2013-01-02 21:58:00,39.1,36.4,30.20,WNW,301,0.0,1.0,90,0.00,,CLR,0.05,VWS V14.00,2013-01-03 02:58:00,
2013-01-02 22:00:00,39.1,36.4,30.20,WNW,301,0.0,1.0,90,0.00,,CLR,0.05,VWS V14.00,2013-01-03 03:00:00,
2013-01-02 22:03:00,39.1,36.4,30.20,WNW,301,0.0,0.0,90,0.00,,CLR,0.05,VWS V14.00,2013-01-03 03:03:00,
2013-01-02 22:08:00,39.1,36.4,30.20,WNW,296,0.0,2.0,90,0.00,,CLR,0.05,VWS V14.00,2013-01-03 03:08:00,
2013-01-02 22:10:00,38.9,36.2,30.20,WNW,296,0.0,2.0,90,0.00,,CLR,0.05,VWS V14.00,2013-01-03 03:10:00,
2013-01-02 22:13:00,38.9,36.2,30.20,WNW,296,0.0,0.0,90,0.00,,CLR,0.05,VWS V14.00,2013-01-03 03:13:00,
2013-01-02 22:18:00,38.9,36.5,30.19,WNW,296,0.0,0.0,91,0.00,,CLR,0.05,VWS V14.00,2013-01-03 03:18:00,
2013-01-02 22:20:00,38.9,36.8,30.19,WNW,296,0.0,0.0,92,0.00,,CLR,0.05,VWS V14.00,2013-01-03 03:20:00,
2013-01-02 22:23:00,38.9,36.8,30.19,WNW,296,0.0,0.0,92,0.00,,CLR,0.05,VWS V14.00,2013-01-03 03:23:00,
2013-01-02 22:28:00,38.9,36.8,30.19,WNW,296,0.0,0.0,92,0.00,,CLR,0.05,VWS V14.00,2013-01-03 03:28:00,
2013-01-02 22:30:00,38.8,37.0,30.19,WNW,296,0.0,0.0,93,0.00,,CLR,0.05,VWS V14.00,2013-01-03 03:30:00,
2013-01-02 22:33:00,38.8,37.0,30.19,WNW,296,0.0,0.0,93,0.00,,CLR,0.05,VWS V14.00,2013-01-03 03:33:00,
2013-01-02 22:39:00,38.8,37.0,30.19,WNW,296,0.0,0.0,93,0.00,,CLR,0.05,VWS V14.00,2013-01-03 03:39:00,
2013-01-02 22:40:00,38.8,37.0,30.19,WNW,296,0.0,0.0,93,0.00,,CLR,0.05,VWS V14.00,2013-01-03 03:40:00,
2013-01-02 22:44:00,38.8,37.0,30.19,WNW,296,0.0,0.0,93,0.00,,CLR,0.05,VWS V14.00,2013-01-03 03:44:00,
2013-01-02 22:49:00,38.8,37.2,30.18,WNW,296,0.0,0.0,94,0.00,,CLR,0.05,VWS V14.00,2013-01-03 03:49:00,
2013-01-02 22:50:00,38.8,37.2,30.18,WNW,296,0.0,0.0,94,0.00,,CLR,0.05,VWS V14.00,2013-01-03 03:50:00,
2013-01-02 22:54:00,38.6,37.3,30.18,WNW,296,0.0,0.0,95,0.00,,CLR,0.05,VWS V14.00,2013-01-03 03:54:00,
2013-01-02 22:59:00,38.6,37.3,30.18,WNW,296,0.0,1.0,95,0.00,,CLR,0.05,VWS V14.00,2013-01-03 03:59:00,
2013-01-02 23:00:00,38.6,37.6,30.18,WNW,296,0.0,1.0,96,0.00,,CLR,0.05,VWS V14.00,2013-01-03 04:00:00,
2013-01-02 23:04:00,38.6,37.6,30.18,WNW,296,0.0,0.0,96,0.00,,CLR,0.05,VWS V14.00,2013-01-03 04:04:00,
2013-01-02 23:09:00,38.6,37.6,30.18,WNW,296,0.0,1.0,96,0.00,,CLR,0.05,VWS V14.00,2013-01-03 04:09:00,
2013-01-02 23:10:00,38.6,37.6,30.18,WNW,296,0.0,1.0,96,0.00,,CLR,0.05,VWS V14.00,2013-01-03 04:10:00,
2013-01-02 23:14:00,38.6,37.6,30.18,WNW,296,0.0,0.0,96,0.00,,CLR,0.05,VWS V14.00,2013-01-03 04:14:00,
2013-01-02 23:19:00,38.6,37.8,30.18,SW,219,0.0,1.0,97,0.00,,CLR,0.05,VWS V14.00,2013-01-03 04:19:00,
2013-01-02 23:20:00,38.6,37.8,30.18,SW,219,0.0,1.0,97,0.00,,CLR,0.05,VWS V14.00,2013-01-03 04:20:00,
2013-01-02 23:24:00,38.6,37.8,30.18,SW,219,0.0,0.0,97,0.00,,CLR,0.05,VWS V14.00,2013-01-03 04:24:00,
2013-01-02 23:29:00,38.5,37.7,30.18,SW,219,0.0,0.0,97,0.00,,CLR,0.05,VWS V14.00,2013-01-03 04:29:00,
2013-01-02 23:30:00,38.5,37.7,30.17,SW,219,0.0,0.0,97,0.00,,CLR,0.05,VWS V14.00,2013-01-03 04:30:00,
2013-01-02 23:34:00,38.5,37.7,30.17,SW,219,0.0,1.0,97,0.00,,CLR,0.05,VWS V14.00,2013-01-03 04:34:00,
2013-01-02 23:39:00,38.5,37.7,30.17,SW,219,0.0,1.0,97,0.00,,CLR,0.05,VWS V14.00,2013-01-03 04:39:00,
2013-01-02 23:40:00,38.5,37.7,30.17,SW,219,0.0,1.0,97,0.00,,CLR,0.05,VWS V14.00,2013-01-03 04:40:00,
2013-01-02 23:44:00,38.5,37.7,30.17,SW,219,0.0,1.0,97,0.00,,CLR,0.05,VWS V14.00,2013-01-03 04:44:00,
2013-01-02 23:49:00,38.5,37.7,30.18,SW,219,0.0,1.0,97,0.00,,CLR,0.05,VWS V14.00,2013-01-03 04:49:00,
2013-01-02 23:50:00,38.3,37.5,30.18,SW,219,0.0,1.0,97,0.00,,CLR,0.05,VWS V14.00,2013-01-03 04:50:00,
2013-01-02 23:54:00,38.3,37.5,30.18,SW,219,0.0,0.0,97,0.00,,-RA,0.05,VWS V14.00,2013-01-03 04:54:00,
2013-01-02 23:59:00,38.3,37.5,30.18,NE,44,2.0,2.0,97,0.00,,-RA,0.05,VWS V14.00,2013-01-03 04:59:00,